1531389600.31,23640,19.13,73948.0,23.91,-1.59,-5.07,0,*48
1531389601.5,23641,19.13,73948.0,23.95,-4.09,-7.19,0,*40
1531389602.72,23642,19.13,73948.0,23.95,-2.83,-5.27,0,*48
1531389603.96,23643,19.13,73944.5,23.95,-3.55,-5.77,0,*46
1531389605.19,23644,19.13,73944.3,23.99,-3.75,-5.81,0,*46
1531389606.47,23645,19.13,73946.0,24.01,-3.63,-5.27,0,*4A
1531389607.71,23646,19.06,73946.3,24.05,-3.23,-4.69,0,*42
1531389608.95,23647,19.13,73944.0,24.07,-3.67,-4.85,0,*43
1531389610.17,23648,19.13,73950.0,24.07,-4.65,-5.89,0,*44
1531389611.37,23649,19.13,73948.3,24.07,-6.81,-8.29,0,*4A
1531389612.58,23650,19.06,73946.5,24.01,-6.05,-7.83,0,*47
1531389613.83,23651,19.13,73948.3,23.97,-4.53,-6.63,0,*40
1531389615.05,23652,19.13,73946.8,23.99,-1.91,-4.33,0,*41
1531389616.3,23653,19.13,73944.3,24.05,-1.43,-4.25,0,*4A
1531389617.49,23654,19.13,73946.5,24.07,-1.67,-4.57,0,*4C
1531389618.7,23655,19.13,73946.5,24.07,-2.55,-4.99,0,*4D
1531389619.92,23656,19.13,73950.8,24.09,-2.43,-4.65,0,*44
1531389621.11,23657,19.13,73950.3,24.11,-2.39,-4.25,0,*45
1531389622.34,23658,19.13,73950.3,24.13,-2.47,-4.21,0,*45
1531389623.56,23659,19.13,73948.5,24.13,-2.31,-3.59,0,*4D
1531389624.8,23660,19.13,73948.5,24.15,-1.95,-3.31,0,*42
1531389626.02,23661,19.13,73948.3,24.19,-2.95,-4.49,0,*44
1531389627.23,23662,19.13,73948.0,24.21,-3.79,-5.55,0,*43
1531389628.47,23663,19.13,73950.0,24.21,-5.03,-7.05,0,*4E
1531389629.66,23664,19.13,73948.0,24.21,-4.49,-6.73,0,*46
1531389630.91,23665,19.13,73944.3,24.23,-4.01,-6.59,0,*41
1531389632.15,23666,19.06,73946.0,24.23,-5.81,-8.45,0,*48
1531389633.36,23667,19.06,73944.0,24.25,-6.39,-9.11,0,*4F
1531389634.63,23668,19.13,73948.8,24.23,-6.93,-9.41,0,*43
1531389635.85,23669,19.13,73948.5,24.25,-5.85,-8.29,0,*4F
1531389637.1,23670,19.13,73950.8,24.29,-5.31,-7.57,0,*42
1531389638.29,23671,19.13,73948.0,24.29,-6.59,-8.89,0,*42
1531389639.51,23672,19.13,73950.8,24.31,-6.81,-9.01,0,*4C
1531389640.7,23673,19.13,73946.5,24.33,-6.69,-8.85,0,*44
1531389641.94,23674,19.13,73946.8,24.35,-7.35,-9.75,0,*43
1531389643.17,23675,19.13,73948.0,24.35,-7.49,-9.49,0,*46
1531389644.44,23676,19.13,73950.5,24.35,-7.57,-9.45,0,*46
1531389645.65,23677,19.13,73946.8,24.37,-7.43,-9.23,0,*40
1531389646.88,23678,19.13,73950.5,24.35,-8.63,-10.27,0,*7C
1531389648.1,23679,19.13,73946.5,24.35,-8.25,-9.79,0,*4C
1531389649.31,23680,19.13,73948.8,24.37,-7.87,-9.45,0,*40
1531389650.53,23681,19.13,73950.5,24.37,-6.59,-7.95,0,*40
1531389651.76,23682,19.13,73948.5,24.39,-6.97,-8.33,0,*4C
1531389652.94,23683,19.13,73946.8,24.41,-7.49,-8.75,0,*42
1531389654.19,23684,19.13,73950.8,24.43,-9.23,-10.63,0,*7B
1531389655.41,23685,19.13,73946.0,24.41,-7.65,-8.89,0,*49
1531389656.64,23686,19.13,73948.8,24.45,-7.31,-8.55,0,*4E
1531389657.86,23687,19.13,73950.8,24.47,-8.21,-9.49,0,*4F
1531389659.09,23688,19.13,73950.0,24.47,-7.73,-9.01,0,*44
1531389660.31,23689,19.13,73950.0,24.47,-8.25,-9.49,0,*45
1531389661.52,23690,19.13,73952.0,24.51,-7.65,-8.75,0,*4F
1531389662.74,23691,19.13,73948.3,24.53,-7.11,-8.25,0,*4A
1531389664.0,23692,19.13,73950.8,24.51,-9.41,-10.63,0,*7B
1531389665.25,23693,19.13,73948.3,24.53,-8.25,-9.37,0,*42
1531389666.47,23694,19.13,73948.3,24.51,-8.63,-9.53,0,*47
1531389667.69,23695,19.13,73944.3,24.55,-8.67,-9.61,0,*47
1531389668.89,23696,19.13,73946.0,24.55,-8.25,-9.27,0,*40
1531389670.1,23697,19.13,73948.8,24.55,-7.99,-8.67,0,*4C
1531389671.36,23698,19.13,73944.3,24.57,-7.31,-8.11,0,*42
1531389672.6,23699,19.13,73948.8,24.59,-7.65,-8.51,0,*48
1531389673.83,23700,19.13,73948.5,24.59,-9.41,-10.27,0,*79
1531389675.05,23701,19.13,73946.3,24.59,-9.83,-10.89,0,*72
1531389676.27,23702,19.13,73944.3,24.59,-9.93,-10.75,0,*73
1531389677.49,23703,19.13,73946.8,24.59,-9.93,-10.67,0,*71
1531389678.74,23704,19.13,73950.0,24.57,-9.49,-10.15,0,*7A
1531389680.0,23705,19.13,73946.0,24.57,-9.37,-10.09,0,*7F
1531389681.25,23706,19.13,73946.5,24.57,-10.01,-10.71,0,*4E
1531389682.53,23707,19.13,73944.5,24.57,-11.77,-12.65,0,*48
1531389683.76,23708,19.13,73946.3,24.55,-11.77,-12.47,0,*45
1531389685.04,23709,19.13,73944.8,24.53,-11.07,-11.73,0,*41
1531389686.26,23710,19.13,73946.5,24.51,-9.97,-10.63,0,*7B
1531389687.49,23711,19.13,73950.0,24.51,-10.05,-10.75,0,*4E
1531389688.74,23712,19.13,73948.3,24.51,-11.97,-12.75,0,*45
1531389689.98,23713,19.13,73944.8,24.51,-11.11,-11.63,0,*4E
1531389691.17,23714,19.13,73946.8,24.47,-9.89,-10.45,0,*73
1531389692.39,23715,19.13,73946.0,24.47,-10.09,-10.71,0,*45
1531389693.59,23716,19.13,73946.8,24.47,-9.31,-9.89,0,*4A
1531389694.78,23717,19.13,73944.0,24.47,-8.75,-9.27,0,*4E
1531389696.01,23718,19.13,73946.5,24.47,-10.57,-11.29,0,*4F
1531389697.26,23719,19.13,73946.3,24.45,-9.45,-9.97,0,*4B
1531389698.51,23720,19.13,73944.5,24.45,-11.81,-12.39,0,*4E
1531389699.79,23721,19.13,73946.0,24.45,-10.67,-11.37,0,*4B
1531389701.06,23722,19.13,73950.0,24.45,-10.93,-11.93,0,*4D
1531389702.31,23723,19.13,73950.8,24.41,-11.63,-12.71,0,*49
1531389703.57,23724,19.13,73946.8,24.39,-11.07,-12.21,0,*46
1531389704.78,23725,19.13,73948.0,24.39,-9.93,-11.23,0,*72
1531389706.05,23726,19.13,73950.8,24.39,-9.49,-10.79,0,*78
1531389707.27,23727,19.13,73948.5,24.37,-10.53,-11.89,0,*4A
1531389708.54,23728,19.13,73946.5,24.39,-9.49,-10.71,0,*7E
1531389709.75,23729,19.13,73948.8,24.37,-9.01,-10.15,0,*7F
1531389710.97,23730,19.13,73946.3,24.37,-8.63,-9.61,0,*49
1531389712.18,23731,19.13,73950.3,24.39,-8.21,-9.27,0,*42
1531389713.41,23732,19.13,73950.8,24.39,-7.39,-8.29,0,*48
1531389714.61,23733,19.13,73948.5,24.41,-7.39,-8.55,0,*4D
1531389715.8,23734,19.13,73944.8,24.41,-8.59,-9.67,0,*43
1531389717.01,23735,19.13,73944.3,24.43,-6.69,-7.87,0,*4D
1531389718.25,23736,19.13,73948.3,24.47,-7.99,-9.41,0,*40
1531389719.48,23737,19.13,73948.0,24.45,-8.67,-10.23,0,*71
1531389720.73,23738,19.13,73948.5,24.45,-10.27,-11.77,0,*43
1531389722.02,23739,19.13,73946.0,24.45,-11.07,-12.53,0,*44
1531389723.27,23740,19.13,73948.3,24.41,-11.07,-12.57,0,*4A
1531389724.51,23741,19.13,73950.5,24.39,-12.43,-13.83,0,*4F
1531389725.73,23742,19.13,73950.0,24.37,-12.65,-14.19,0,*42
1531389726.98,23743,19.13,73950.3,24.31,-13.43,-15.01,0,*48
1531389728.21,23744,19.13,73948.5,24.29,-12.47,-14.05,0,*46
1531389729.49,23745,19.13,73950.5,24.23,-11.33,-12.71,0,*48
1531389730.75,23746,19.13,73948.8,24.23,-11.89,-12.97,0,*42
1531389732.0,23747,19.13,73950.8,24.19,-11.51,-12.47,0,*42
1531389733.28,23748,19.13,73946.3,24.19,-11.37,-12.35,0,*48
1531389734.53,23749,19.13,73950.5,24.17,-11.97,-12.65,0,*48
1531389735.81,23750,19.13,73950.8,24.15,-11.89,-12.57,0,*4C
1531389737.07,23751,19.13,73946.0,24.15,-14.11,-14.83,0,*46
1531389738.33,23752,19.13,73948.5,24.11,-13.61,-13.61,0,*4A
1531389739.59,23753,19.13,73946.0,24.09,-13.97,-14.37,0,*4F
1531389740.86,23754,19.13,73946.5,24.09,-14.97,-15.21,0,*49
1531389742.11,23755,19.13,73944.8,24.01,-14.15,-14.43,0,*4F
1531389743.38,23756,19.13,73946.5,23.97,-15.11,-15.39,0,*4D
1531389744.64,23757,19.13,73946.0,23.97,-13.11,-13.33,0,*46
1531389745.87,23758,19.13,73946.8,23.95,-12.15,-12.39,0,*45
1531389747.1,23759,19.13,73946.5,23.93,-12.29,-12.43,0,*40
1531389748.33,23760,19.13,73944.8,23.95,-11.01,-11.29,0,*4A
1531389749.58,23761,19.13,73944.8,23.93,-13.33,-13.55,0,*47
1531389750.84,23762,19.13,73946.5,23.93,-14.01,-14.33,0,*45
1531389752.1,23763,19.13,73946.5,23.91,-13.61,-13.61,0,*47
1531389753.36,23764,19.13,73944.8,23.87,-12.83,-12.79,0,*42
1531389754.59,23765,19.13,73948.5,23.85,-12.89,-12.97,0,*4B
1531389755.86,23766,19.13,73944.5,23.85,-12.61,-12.83,0,*4B
1531389757.11,23767,19.13,73948.0,23.85,-11.19,-11.37,0,*4A
1531389758.4,23768,19.13,73946.5,23.85,-11.63,-11.63,0,*49
1531389759.66,23769,19.13,73948.0,23.87,-10.71,-10.75,0,*4E
1531389760.94,23770,19.13,73946.5,23.85,-11.51,-11.63,0,*41
1531389762.2,23771,19.13,73946.5,23.87,-11.67,-11.85,0,*4F
1531389763.48,23772,19.13,73946.0,23.85,-11.73,-11.89,0,*47
1531389764.68,23773,19.13,73946.5,23.83,-11.15,-11.19,0,*49
1531389765.92,23774,19.13,73944.0,23.85,-10.35,-10.49,0,*4F
1531389767.2,23775,19.13,73948.3,23.85,-10.63,-10.79,0,*4E
1531389768.45,23776,19.13,73950.5,23.85,-12.89,-13.01,0,*47
1531389769.66,23777,19.13,73946.0,23.83,-14.19,-14.37,0,*4D
1531389770.91,23778,19.13,73948.8,23.79,-13.11,-13.33,0,*4B
1531389772.11,23779,19.13,73946.8,23.77,-13.15,-13.23,0,*41
1531389773.33,23780,19.13,73950.0,23.75,-12.03,-12.21,0,*40
1531389774.56,23781,19.13,73948.8,23.77,-12.79,-13.07,0,*4B
1531389775.82,23782,19.13,73944.0,23.73,-13.83,-14.01,0,*49
1531389777.06,23783,19.13,73948.3,23.71,-15.35,-15.67,0,*40
1531389778.32,23784,19.13,73948.0,23.67,-16.79,-17.21,0,*4B
1531389779.57,23785,19.13,73950.5,23.63,-16.65,-16.97,0,*4F
1531389780.81,23786,19.13,73944.8,23.55,-18.25,-18.59,0,*4F
1531389782.01,23787,19.13,73946.5,23.49,-18.21,-18.41,0,*4E
1531389783.24,23788,19.13,73944.8,23.43,-16.55,-16.69,0,*42
1531389784.51,23789,19.13,73946.5,23.41,-14.97,-15.21,0,*42
1531389785.76,23790,19.13,73946.0,23.37,-16.97,-17.25,0,*4F
1531389786.96,23791,19.13,73946.5,23.31,-18.65,-19.07,0,*45
1531389788.2,23792,19.13,73944.5,23.23,-19.13,-19.27,0,*47
1531389789.48,23793,19.13,73946.5,23.21,-17.59,-17.79,0,*41
1531389790.76,23794,19.13,73946.8,23.15,-17.11,-17.41,0,*46
1531389791.99,23795,19.13,73944.3,23.11,-15.29,-15.25,0,*4A
1531389793.19,23796,19.13,73940.3,23.09,-15.53,-15.67,0,*4B
1531389794.43,23797,19.13,73944.5,23.05,-14.51,-14.37,0,*41
1531389795.63,23798,19.13,73946.0,23.05,-14.33,-14.23,0,*4F
1531389796.85,23799,19.13,73948.3,23.03,-15.11,-15.07,0,*4E
1531389798.06,23800,19.13,73950.0,23.01,-16.55,-16.83,0,*4F
1531389799.26,23801,19.13,73948.5,22.97,-15.25,-15.07,0,*4B
1531389800.49,23802,19.13,73944.3,22.97,-14.75,-14.33,0,*4A
1531389801.72,23803,19.13,73948.0,22.93,-15.39,-15.11,0,*47
1531389802.96,23804,19.13,73948.5,22.89,-15.57,-15.29,0,*48
1531389804.23,23805,19.13,73946.0,22.87,-15.21,-14.79,0,*42
1531389805.49,23806,19.13,73946.8,22.87,-14.61,-14.05,0,*4F
1531389806.72,23807,19.13,73940.5,22.85,-13.23,-12.65,0,*4D
1531389807.95,23808,19.13,73946.0,22.85,-12.79,-12.21,0,*4C
1531389809.18,23809,19.13,73946.3,22.83,-15.71,-14.93,0,*4B
1531389810.41,23810,19.13,73948.8,22.81,-15.99,-15.29,0,*47
1531389811.61,23811,19.13,73948.3,22.79,-15.29,-14.61,0,*47
1531389812.86,23812,19.13,73948.5,22.75,-15.21,-14.47,0,*44
1531389814.09,23813,19.19,73948.5,22.73,-16.45,-15.63,0,*45
1531389815.3,23814,19.13,73946.0,22.71,-16.55,-15.71,0,*42
1531389816.55,23815,19.13,73946.8,22.63,-17.59,-16.51,0,*4C
1531389817.78,23816,19.13,73946.3,22.61,-15.25,-14.15,0,*46
1531389819.01,23817,19.13,73946.0,22.59,-16.31,-15.15,0,*4B
1531389820.29,23818,19.13,73946.0,22.57,-12.75,-11.63,0,*4B
1531389821.52,23819,19.13,73944.8,22.59,-15.43,-14.33,0,*46
1531389822.75,23820,19.13,73944.3,22.53,-14.29,-13.07,0,*4B
1531389823.99,23821,19.13,73944.5,22.53,-14.23,-12.97,0,*48
1531389825.24,23822,19.13,73946.8,22.53,-13.11,-11.67,0,*41
1531389826.47,23823,19.13,73944.3,22.51,-13.61,-12.29,0,*4C
1531389827.73,23824,19.13,73946.0,22.51,-15.43,-14.01,0,*41
1531389828.98,23825,19.13,73944.0,22.49,-14.89,-13.33,0,*48
1531389830.25,23826,19.13,73946.5,22.47,-14.47,-12.71,0,*40
1531389831.49,23827,19.13,73940.5,22.43,-13.65,-11.93,0,*4D
1531389832.72,23828,19.13,73946.0,22.43,-13.65,-11.93,0,*42
1531389833.95,23829,19.13,73944.5,22.43,-13.19,-11.37,0,*46
1531389835.23,23830,19.13,73946.5,22.41,-12.71,-10.79,0,*48
1531389836.48,23831,19.13,73944.8,22.41,-11.77,-9.71,0,*7C
1531389837.71,23832,19.13,73946.8,22.41,-13.15,-11.15,0,*42
1531389838.93,23833,19.13,73944.0,22.39,-14.29,-12.15,0,*47
1531389840.16,23834,19.13,73946.8,22.41,-13.15,-10.93,0,*4B
1531389841.37,23835,19.13,73944.0,22.39,-12.29,-10.09,0,*48
1531389842.56,23836,19.13,73942.3,22.39,-11.15,-8.89,0,*76
1531389843.81,23837,19.13,73946.0,22.41,-10.63,-8.29,0,*72
1531389845.0,23838,19.13,73944.5,22.43,-10.53,-8.25,0,*70
1531389846.23,23839,19.19,73944.5,22.47,-10.35,-8.11,0,*72
1531389847.48,23840,19.19,73946.5,22.47,-11.67,-9.41,0,*7E
1531389848.7,23841,19.13,73944.8,22.43,-11.67,-9.31,0,*7C
1531389849.92,23842,19.13,73946.3,22.47,-11.23,-8.81,0,*71
1531389851.17,23843,19.13,73942.8,22.49,-10.19,-7.95,0,*7C
1531389852.39,23844,19.13,73946.8,22.49,-9.23,-7.23,0,*47
1531389853.64,23845,19.13,73944.0,22.51,-9.15,-7.39,0,*41
1531389854.9,23846,19.19,73946.5,22.53,-8.03,-6.23,0,*4C
1531389856.15,23847,19.13,73942.5,22.55,-8.11,-6.63,0,*4C
1531389857.35,23848,19.19,73946.5,22.59,-6.73,-5.55,0,*43
1531389858.56,23849,19.13,73944.5,22.59,-7.39,-6.35,0,*48
1531389859.81,23850,19.19,73944.5,22.63,-5.93,-5.23,0,*4F
1531389861.06,23851,19.13,73942.5,22.65,-6.09,-5.69,0,*46
1531389862.26,23852,19.13,73942.8,22.67,-6.31,-6.55,0,*40
1531389863.48,23853,19.19,73946.0,22.71,-5.51,-6.19,0,*4B
1531389864.72,23854,19.13,73946.5,22.73,-4.45,-5.65,0,*42
1531389865.94,23855,19.13,73944.5,22.73,-3.19,-4.61,0,*48
1531389867.17,23856,19.13,73944.0,22.77,-2.95,-4.53,0,*4B
1531389868.38,23857,19.19,73944.3,22.79,-3.07,-5.15,0,*4D
1531389869.62,23858,19.19,73946.5,22.81,-1.29,-3.43,0,*4E
1531389870.81,23859,19.13,73942.5,22.83,-1.51,-4.05,0,*47
1531389872.02,23860,19.13,73942.8,22.85,-1.01,-3.23,0,*4D
1531389873.27,23861,19.19,73944.3,22.87,1.01,-1.35,0,*66
1531389874.52,23862,19.19,73944.8,22.95,1.85,-0.89,0,*5C
1531389875.75,23863,19.19,73944.5,22.99,3.19,0.05,0,*4F
1531389876.96,23864,19.19,73946.0,23.03,3.85,0.41,0,*7F
1531389878.17,23865,19.19,73944.8,23.11,4.15,-0.15,0,*5F
1531389879.43,23866,19.13,73944.3,23.17,4.79,0.51,0,*7D
1531389880.62,23867,19.19,73944.3,23.19,6.03,1.75,0,*4A
1531389881.85,23868,19.13,73946.0,23.21,4.85,0.29,0,*7A
1531389883.08,23869,19.19,73946.0,23.25,5.49,0.47,0,*76
1531389884.34,23870,19.19,73944.5,23.25,3.37,-2.11,0,*6D
1531389885.62,23871,19.13,73944.3,23.25,3.07,-2.47,0,*6C
1531389886.8,23872,19.13,73940.5,23.23,2.61,-2.79,0,*65
1531389888.01,23873,19.19,73942.8,23.19,3.33,-1.75,0,*64
1531389889.27,23874,19.19,73946.3,23.17,3.97,-0.97,0,*5E
1531389890.5,23875,19.13,73944.0,23.15,3.53,-1.67,0,*6B
1531389891.72,23876,19.13,73942.0,23.05,1.85,-2.83,0,*69
1531389892.95,23877,19.19,73940.8,23.03,1.67,-2.39,0,*63
1531389894.17,23878,19.19,73944.0,22.95,0.13,-3.35,0,*5D
1531389895.41,23879,19.13,73936.5,22.87,0.97,-1.99,0,*57
1531389896.66,23880,19.19,73942.3,22.81,0.67,-1.99,0,*58
1531389897.88,23881,19.19,73944.0,22.75,-1.13,-2.91,0,*46
1531389899.12,23882,19.13,73942.3,22.65,-0.65,-2.11,0,*7C
1531389900.34,23883,19.19,73946.3,22.59,-1.25,-2.47,0,*44
1531389901.55,23884,19.19,73942.5,22.53,-0.29,-1.21,0,*77
1531389902.74,23885,19.19,73942.3,22.43,-0.69,-1.17,0,*76
1531389903.96,23886,19.13,73940.8,22.39,-0.97,-1.17,0,*79
1531389905.15,23887,19.13,73940.8,22.35,-0.69,-0.41,0,*47
1531389906.36,23888,19.19,73944.5,22.27,-1.67,-0.89,0,*70
1531389907.58,23889,19.13,73940.0,22.21,-1.21,-0.41,0,*71
1531389908.8,23890,19.19,73942.0,22.17,0.41,0.79,0,*40
1531389910.01,23891,19.19,73940.3,22.15,-0.37,-0.19,0,*44
1531389911.22,23892,19.19,73940.8,22.09,-1.21,-0.85,0,*79
1531389912.4,23893,19.19,73944.0,22.05,-0.45,-0.03,0,*79
1531389913.6,23894,19.19,73942.5,22.05,0.79,1.05,0,*76
1531389914.82,23895,19.13,73942.3,22.05,2.85,3.07,0,*46
1531389916.04,23896,19.19,73942.5,22.05,3.53,3.79,0,*46
1531389917.28,23897,19.19,73942.5,22.05,3.07,3.07,0,*4F
1531389918.53,23898,19.19,73942.3,22.07,3.23,2.69,0,*4D
1531389919.77,23899,19.19,73942.0,22.09,3.75,3.19,0,*47
1531389920.99,23900,19.19,73940.5,22.09,3.49,2.47,0,*43
1531389922.22,23901,19.19,73940.0,22.09,4.59,3.53,0,*40
1531389923.45,23902,19.19,73942.3,22.13,4.01,2.73,0,*46
1531389924.63,23903,19.19,73940.5,22.13,5.63,4.37,0,*44
1531389925.84,23904,19.19,73942.8,22.13,6.43,5.33,0,*47
1531389927.08,23905,19.19,73942.0,22.15,7.61,6.57,0,*40
1531389928.28,23906,19.19,73942.8,22.19,7.01,6.11,0,*4B
1531389929.51,23907,19.19,73940.8,22.19,7.23,6.21,0,*49
1531389930.75,23908,19.19,73944.0,22.25,6.61,5.49,0,*43
1531389931.95,23909,19.19,73942.3,22.27,5.81,4.89,0,*40
1531389933.16,23910,19.19,73940.8,22.27,6.97,6.13,0,*4D
1531389934.38,23911,19.19,73942.0,22.27,6.57,5.71,0,*47
1531389935.6,23912,19.19,73944.8,22.29,7.87,6.97,0,*4D
1531389936.84,23913,19.19,73944.0,22.33,6.53,5.67,0,*43
1531389938.03,23914,19.19,73942.0,22.31,5.95,5.07,0,*49
1531389939.21,23915,19.19,73940.3,22.31,6.33,5.41,0,*45
1531389940.43,23916,19.19,73940.0,22.27,5.01,4.41,0,*42
1531389941.64,23917,19.19,73942.8,22.25,5.99,5.29,0,*4F
1531389942.87,23918,19.19,73942.8,22.21,5.85,5.29,0,*49
1531389944.11,23919,19.19,73942.8,22.21,6.91,6.57,0,*44
1531389945.35,23920,19.19,73944.0,22.19,6.03,5.51,0,*4B
1531389946.59,23921,19.19,73942.8,22.19,6.39,6.03,0,*47
1531389947.76,23922,19.19,73940.3,22.17,7.33,7.09,0,*4A
1531389949.01,23923,19.19,73942.0,22.19,7.47,7.19,0,*47
1531389950.21,23924,19.19,73940.8,22.17,6.79,6.61,0,*4C
1531389951.42,23925,19.19,73940.3,22.17,8.19,8.13,0,*4E
1531389952.59,23926,19.19,73940.3,22.13,7.41,7.29,0,*4D
1531389953.82,23927,19.19,73942.5,22.15,7.65,7.55,0,*47
1531389955.02,23928,19.19,73940.0,22.13,7.37,7.23,0,*48
1531389956.24,23929,19.19,73942.8,22.13,6.73,6.69,0,*47
1531389957.42,23930,19.19,73942.5,22.09,4.81,4.81,0,*4F
1531389958.62,23931,19.19,73940.5,22.09,6.91,6.79,0,*48
1531389959.82,23932,19.13,73938.3,22.07,7.33,7.33,0,*43
1531389961.02,23933,19.19,73942.3,22.03,6.83,6.79,0,*43
1531389962.27,23934,19.19,73940.5,22.03,6.33,6.35,0,*47
1531389963.47,23935,19.19,73944.5,21.99,7.45,7.45,0,*40
1531389964.68,23936,19.19,73940.5,21.97,8.13,8.09,0,*46
1531389965.89,23937,19.19,73946.3,21.95,7.51,7.37,0,*4E
1531389967.12,23938,19.19,73942.5,21.93,6.51,6.61,0,*44
1531389968.35,23939,19.19,73946.5,21.93,5.73,5.81,0,*4B
1531389969.56,23940,19.19,73942.8,21.89,4.75,4.85,0,*4C
1531389970.77,23941,19.19,73946.3,21.85,5.11,5.19,0,*46
1531389971.98,23942,19.19,73944.5,21.81,5.07,5.07,0,*49
1531389973.22,23943,19.19,73942.3,21.79,6.17,6.17,0,*4F
1531389974.4,23944,19.19,73944.0,21.75,5.45,5.67,0,*44
1531389975.59,23945,19.19,73944.0,21.73,5.29,5.37,0,*4C
1531389976.8,23946,19.19,73944.0,21.69,5.37,5.49,0,*42
1531389977.99,23947,19.19,73942.3,21.67,5.11,5.23,0,*45
1531389979.22,23948,19.19,73946.5,21.61,4.57,4.59,0,*43
1531389980.48,23949,19.19,73946.8,21.57,4.63,4.79,0,*42
1531389981.72,23950,19.19,73944.8,21.51,4.57,4.67,0,*44
1531389982.94,23951,19.19,73942.5,21.49,4.31,4.53,0,*4B
1531389984.16,23952,19.19,73946.3,21.45,4.37,4.63,0,*41
1531389985.39,23953,19.19,73944.8,21.39,4.85,5.27,0,*43
1531389986.63,23954,19.19,73940.8,21.39,5.33,5.77,0,*4D
1531389987.86,23955,19.19,73944.0,21.35,5.55,6.11,0,*43
1531389989.09,23956,19.19,73948.3,21.35,5.41,5.89,0,*47
1531389990.3,23957,19.19,73944.3,21.29,5.37,5.85,0,*46
1531389991.49,23958,19.19,73946.3,21.25,5.11,5.67,0,*4D
1531389992.71,23959,19.19,73946.3,21.23,5.27,5.67,0,*4F
1531389993.94,23960,19.19,73950.0,21.21,4.63,5.01,0,*46
1531389995.13,23961,19.19,73944.3,21.17,4.89,5.23,0,*46
1531389996.35,23962,19.19,73948.5,21.13,2.81,2.59,0,*45
1531389997.61,23963,19.19,73946.8,21.07,3.07,3.11,0,*43
1531389998.84,23964,19.19,73948.8,21.01,2.81,2.81,0,*45
1531390000.1,23965,19.19,73944.8,20.95,3.75,3.75,0,*48
1531390001.3,23966,19.19,73950.3,20.91,3.85,3.75,0,*40
1531390002.53,23967,19.19,73948.0,20.85,4.01,3.89,0,*4C
1531390003.75,23968,19.19,73950.3,20.81,4.19,4.01,0,*49
1531390004.99,23969,19.19,73944.0,20.79,4.05,3.75,0,*46
1531390006.2,23970,19.19,73950.0,20.75,3.67,3.25,0,*44
1531390007.42,23971,19.19,73950.3,20.73,4.71,4.11,0,*43
1531390008.66,23972,19.19,73944.5,20.69,4.93,4.41,0,*42
1531390009.93,23973,19.19,73946.3,20.69,4.97,4.63,0,*47
1531390011.14,23974,19.19,73946.5,20.63,4.71,4.23,0,*46
1531390012.37,23975,19.19,73946.3,20.61,4.31,3.81,0,*4E
1531390013.57,23976,19.19,73950.0,20.59,4.57,4.15,0,*4C
1531390014.78,23977,19.19,73950.0,20.55,4.85,4.37,0,*4E
1531390016.01,23978,19.19,73948.0,20.55,5.05,4.49,0,*41
1531390017.23,23979,19.19,73948.3,20.51,4.75,4.11,0,*4F
1531390018.44,23980,19.19,73950.5,20.49,4.37,3.67,0,*40
1531390019.64,23981,19.19,73946.8,20.47,4.49,3.85,0,*4A
1531390020.83,23982,19.19,73948.3,20.45,5.29,4.67,0,*47
1531390022.01,23983,19.19,73948.3,20.45,5.29,4.57,0,*45
1531390023.24,23984,19.19,73948.5,20.43,5.11,4.31,0,*4F
1531390024.45,23985,19.19,73948.0,20.37,4.97,4.07,0,*47
1531390025.63,23986,19.19,73952.8,20.37,4.07,2.99,0,*4C
1531390026.87,23987,19.19,73948.8,20.33,3.45,2.43,0,*4F
1531390028.13,23988,19.19,73948.8,20.31,3.41,2.43,0,*46
1531390029.34,23989,19.19,73952.5,20.29,3.93,2.85,0,*4B
1531390030.55,23990,19.19,73952.0,20.29,4.53,3.03,0,*47
1531390031.75,23991,19.19,73950.5,20.27,3.93,1.89,0,*43
1531390032.98,23992,19.19,73950.5,20.25,3.79,1.75,0,*45
1531390034.2,23993,19.19,73950.5,20.25,3.89,1.59,0,*45
1531390035.46,23994,19.19,73950.3,20.21,3.97,1.33,0,*45
1531390036.7,23995,19.19,73952.3,20.21,2.89,0.13,0,*79
1531390037.97,23996,19.19,73948.8,20.21,2.17,-1.05,0,*66
1531390039.2,23997,19.19,73952.3,20.15,2.51,-0.89,0,*57
1531390040.47,23998,19.19,73952.3,20.13,2.43,-1.43,0,*6A
1531390041.71,23999,19.19,73954.0,20.13,2.25,-2.23,0,*6E
1531390042.92,24000,19.19,73950.8,20.11,2.01,-2.87,0,*6A
1531390044.16,24001,19.19,73948.5,20.09,1.55,-3.75,0,*6C
1531390045.35,24002,19.19,73952.5,20.07,1.05,-4.05,0,*64
1531390046.56,24003,19.19,73952.3,20.07,0.71,-4.29,0,*59
1531390047.82,24004,19.19,73954.3,20.05,1.09,-4.01,0,*68
1531390049.03,24005,19.19,73952.0,20.03,1.79,-3.51,0,*6A
1531390050.23,24006,19.19,73954.8,20.03,1.83,-3.67,0,*69
1531390051.47,24007,19.19,73950.3,20.05,1.83,-4.01,0,*69
1531390052.74,24008,19.19,73954.8,20.05,1.09,-5.23,0,*65
1531390053.94,24009,19.19,73954.0,20.07,-0.81,-7.11,0,*79
1531390055.13,24010,19.19,73954.5,20.07,-2.83,-8.97,0,*40
1531390056.35,24011,19.19,73952.0,20.03,-3.03,-9.41,0,*46
1531390057.62,24012,19.19,73952.3,20.01,-2.47,-8.51,0,*46
1531390058.86,24013,19.19,73950.5,19.99,-2.03,-7.69,0,*48
1531390060.08,24014,19.19,73948.0,19.99,-1.67,-6.93,0,*4A
1531390061.27,24015,19.19,73954.0,19.99,-1.63,-6.51,0,*41
1531390062.49,24016,19.19,73952.8,20.01,-2.15,-6.59,0,*43
1531390063.74,24017,19.19,73952.5,20.01,-3.79,-7.77,0,*44
1531390064.98,24018,19.19,73950.8,20.01,-5.19,-8.59,0,*48
1531390066.2,24019,19.19,73954.0,19.99,-5.23,-8.25,0,*40
1531390067.42,24020,19.19,73954.5,19.99,-3.19,-5.65,0,*4C
1531390068.62,24021,19.19,73952.8,19.99,-1.33,-3.19,0,*4A
1531390069.84,24022,19.19,73954.0,20.01,-1.71,-3.27,0,*49
1531390071.05,24023,19.19,73954.3,20.03,-2.91,-4.01,0,*44
1531390072.27,24024,19.19,73952.5,20.05,-1.79,-2.35,0,*41
1531390073.45,24025,19.19,73950.8,20.11,-0.41,-0.61,0,*4C
1531390074.65,24026,19.19,73954.5,20.17,-0.15,0.09,0,*5B
1531390075.85,24027,19.19,73952.0,20.23,0.91,1.41,0,*71
1531390077.1,24028,19.19,73952.5,20.31,1.21,1.83,0,*49
1531390078.34,24029,19.19,73952.8,20.35,0.33,1.17,0,*73
1531390079.5,24030,19.19,73952.8,20.45,0.01,1.01,0,*4A
1531390080.69,24031,19.19,73954.5,20.49,0.33,1.05,0,*72
1531390081.9,24032,19.19,73954.8,20.55,-0.07,0.67,0,*53
1531390083.14,24033,19.19,73952.3,20.61,-0.85,-0.15,0,*47
1531390084.33,24034,19.19,73954.3,20.67,-1.21,-0.65,0,*7E
1531390085.53,24035,19.19,73952.3,20.75,-0.93,-0.57,0,*45
1531390086.71,24036,19.19,73952.0,20.79,-0.29,-0.03,0,*7A
1531390087.92,24037,19.19,73954.3,20.91,-0.41,-0.27,0,*45
1531390089.13,24038,19.19,73954.5,20.93,-1.71,-1.95,0,*42
1531390090.36,24039,19.19,73950.0,20.99,-3.39,-3.63,0,*4C
1531390091.57,24040,19.19,73952.0,21.01,-3.11,-3.47,0,*4E
1531390092.78,24041,19.19,73950.8,21.07,-3.31,-3.87,0,*47
1531390093.96,24042,19.19,73954.5,21.13,-4.37,-5.35,0,*4F
1531390095.17,24043,19.19,73952.3,21.13,-5.81,-6.73,0,*43
1531390096.38,24044,19.19,73952.5,21.15,-5.55,-6.47,0,*4C
1531390097.6,24045,19.19,73952.8,21.19,-3.87,-4.61,0,*4E
1531390098.82,24046,19.19,73952.3,21.21,-4.77,-5.73,0,*4C
1531390100.05,24047,19.19,73954.0,21.23,-4.73,-5.43,0,*48
1531390101.31,24048,19.19,73952.0,21.27,-3.63,-4.29,0,*48
1531390102.54,24049,19.19,73952.8,21.31,-3.83,-4.61,0,*4C
1531390103.75,24050,19.19,73952.3,21.37,-3.39,-3.95,0,*4F
1531390104.94,24051,19.19,73952.3,21.41,-3.23,-3.87,0,*47
1531390106.19,24052,19.19,73952.8,21.49,-5.03,-5.85,0,*4C
1531390107.43,24053,19.19,73952.8,21.51,-5.15,-6.05,0,*48